TimePDT,TemperatureF,Dew PointF,Humidity,Sea Level PressureIn,VisibilityMPH,Wind Direction,Wind SpeedMPH,Gust SpeedMPH,PrecipitationIn,Events,Conditions,WindDirDegrees,DateUTC
12:55 AM,51.8,41.0,67,30.08,10.0,Calm,Calm,-,N/A,,Clear,0,2012-10-30 07:55:00
1:15 AM,51.8,39.2,62,30.08,10.0,Calm,Calm,-,N/A,,Clear,0,2012-10-30 08:15:00
1:55 AM,51.8,39.2,62,30.08,10.0,Calm,Calm,-,N/A,,Clear,0,2012-10-30 08:55:00
2:15 AM,51.8,39.2,62,30.08,10.0,Calm,Calm,-,N/A,,Clear,0,2012-10-30 09:15:00
2:35 AM,50.0,39.2,66,30.08,10.0,Calm,Calm,-,N/A,,Clear,0,2012-10-30 09:35:00
2:55 AM,50.0,41.0,71,30.07,10.0,Calm,Calm,-,N/A,,Clear,0,2012-10-30 09:55:00
3:15 AM,48.2,39.2,71,30.07,10.0,Calm,Calm,-,N/A,,Clear,0,2012-10-30 10:15:00
3:35 AM,48.2,39.2,71,30.06,10.0,Calm,Calm,-,N/A,,Clear,0,2012-10-30 10:35:00
3:55 AM,48.2,39.2,71,30.06,10.0,Calm,Calm,-,N/A,,Clear,0,2012-10-30 10:55:00
4:15 AM,48.2,39.2,71,30.06,10.0,Calm,Calm,-,N/A,,Clear,0,2012-10-30 11:15:00
4:35 AM,48.2,39.2,71,30.06,10.0,NW,3.5,-,N/A,,Clear,310,2012-10-30 11:35:00
4:55 AM,48.2,39.2,71,30.06,10.0,Calm,Calm,-,N/A,,Clear,0,2012-10-30 11:55:00
5:15 AM,46.4,39.2,76,30.06,10.0,Calm,Calm,-,N/A,,Clear,0,2012-10-30 12:15:00
5:35 AM,46.4,39.2,76,30.07,10.0,Calm,Calm,-,N/A,,Clear,0,2012-10-30 12:35:00
5:55 AM,46.4,39.2,76,30.07,10.0,Calm,Calm,-,N/A,,Clear,0,2012-10-30 12:55:00
6:15 AM,48.2,39.2,71,30.07,10.0,Calm,Calm,-,N/A,,Clear,0,2012-10-30 13:15:00
7:47 AM,46.4,39.2,76,30.07,25.0,Calm,Calm,-,N/A,,Partly Cloudy,0,2012-10-30 14:47:00
9:47 AM,64.4,37.4,37,30.06,25.0,Calm,Calm,-,N/A,,Partly Cloudy,0,2012-10-30 16:47:00
10:47 AM,73.4,35.6,25,30.05,25.0,Calm,Calm,-,N/A,,Clear,0,2012-10-30 17:47:00
12:47 PM,84.2,39.2,20,30.01,25.0,Calm,Calm,-,N/A,,Clear,0,2012-10-30 19:47:00
1:47 PM,84.2,41.0,22,29.98,25.0,WNW,6.9,-,N/A,,Clear,290,2012-10-30 20:47:00
9:15 PM,57.2,53.6,88,30.03,10.0,Calm,Calm,-,N/A,,Clear,0,2012-10-31 04:15:00
9:35 PM,57.2,53.6,88,30.03,9.0,Calm,Calm,-,N/A,,Clear,0,2012-10-31 04:35:00
9:55 PM,55.4,53.6,94,30.03,8.0,WNW,3.5,-,N/A,,Clear,300,2012-10-31 04:55:00
10:15 PM,55.4,53.6,94,30.04,8.0,Calm,Calm,-,N/A,,Clear,0,2012-10-31 05:15:00
10:35 PM,55.4,53.6,94,30.04,9.0,Calm,Calm,-,N/A,,Clear,0,2012-10-31 05:35:00
10:55 PM,55.4,51.8,88,30.04,9.0,WNW,3.5,-,N/A,,Clear,290,2012-10-31 05:55:00
11:15 PM,53.6,51.8,94,30.04,7.0,WNW,3.5,-,N/A,,Clear,300,2012-10-31 06:15:00
11:35 PM,53.6,51.8,94,30.05,8.0,Calm,Calm,-,N/A,,Clear,0,2012-10-31 06:35:00
11:55 PM,53.6,51.8,94,30.05,7.0,Calm,Calm,-,N/A,,Clear,0,2012-10-31 06:55:00